www.pogodaiklimat.ru

Погода и климат >> Архив погоды >> Индия >> Андхра-Прадеш >> Бапатла


ПОГОДА в Бапатле

  • Прогноз погоды в Бапатле
  • Монитор погоды в Бапатле

АРХИВ ПОГОДЫ в Бапатле

Время (UTC), дата Ветер
(напр.,м/с)
 
Видим.   Явления Облачность Т
(С)
Тd
(С)
f
(%)
Тe
(С)
Тes
(С)
Комфортность P
(гПа)
Po
(гПа)
Тmin
(С)
Tmax
(С)
R
(мм)
R24
(мм)
S
(см)
21 12.05 Ю 1 4000 м 5/3 600 м
[Sc Ci sp]
+30.2 +27.1 84 +48 +48 опасность
перегрева
1004.8 1004.1
00 13.05 Ю 3 4000 м 5/3 600 м
[Sc diur, vesp Ci sp]
+29.8 +26.4 82 +46 +46 опасность
перегрева
1004.8 1004.1
03 13.05 ЮВ 3 10 км 6/4 600 м
[Sc Ac trans]
+31.4 +28.4 84 +53 +56 опасность
перегрева
1007.2 1006.5 +29.0 +35.2
06 13.05 Ю 3 10 км 6/4 600 м
[Sc Ac trans Ci sp]
+34.4 +28.1 70 +55 +65 опасность
перегрева
1006.7 1006.0
09 13.05 ЮВ 3 10 км 3/1 600 м
[Sc diur, vesp Ci sp]
+34.8 +28.0 68 +56 +66 опасность
перегрева
1004.3 1003.6
12 13.05 Ю 3 10 км 6/4 600 м
[Cb cap Ci ing]
+31.8 +27.9 80 +52 +53 опасность
перегрева
1003.1 1002.4 +35.4
15 13.05 ЮВ 1 4000 м 8/3 600 м
[Sc diur, vesp Ac trans Ci sp]
+31.4 +27.8 81 +51 +51 опасность
перегрева
1004.9 1004.2
18 13.05 ЮВ 1 4000 м 5/1 600 м
[Sc diur, vesp Ac trans Ci sp]
+30.6 +27.2 82 +48 +48 опасность
перегрева
1005.0 1004.3
21 13.05 Ю 1 4000 м 3/1 600 м
[Sc diur, vesp Ci sp]
+30.0 +26.6 82 +46 +46 опасность
перегрева
1003.9 1003.2
00 14.05 Ю 1 4000 м 6/3 600 м
[Sc Ac trans Ci sp]
+29.6 +26.2 82 +45 +45 опасность
перегрева
1005.1 1004.4
03 14.05 Ю 3 10 км 5/5 600 м
[Sc diur, vesp]
+32.2 +28.3 80 +54 +57 опасность
перегрева
1007.0 1006.3 +29.0 +35.4
06 14.05 Ю 3 10 км 3/3 600 м
[Sc]
+35.0 +28.2 68 +56 +70 опасность
перегрева
1006.6 1005.9
09 14.05 ЮВ 3 10 км 3/3 600 м
[Sc]
+35.6 +28.5 67 +58 +67 опасность
перегрева
1004.2 1003.5
12 14.05 Ю 4 10 км 3/3 600 м
[Sc]
+32.0 +28.1 80 +53 +53 опасность
перегрева
1003.1 1002.4 +36.3
15 14.05 ЮВ 3 4000 м 8/4 600 м
[Sc Ac trans Ci sp]
+30.6 +26.7 80 +48 +48 опасность
перегрева
1005.3 1004.6
18 14.05 ЮВ 2 4000 м 6/4 600 м
[Sc Ac trans]
+30.0 +26.6 82 +46 +46 опасность
перегрева
1006.2 1005.5
21 14.05 ЮВ 2 4000 м 4/4 600 м
[Sc]
+29.6 +26.5 83 +45 +45 опасность
перегрева
1005.3 1004.6
00 15.05 ЮВ 2 4000 м 8/4 600 м
[Sc Ac trans Ci sp]
+29.2 +26.4 85 +45 +45 опасность
перегрева
1005.7 1005.0
03 15.05 ЮВ 2 10 км 6/4 600 м
[Sc diur, vesp Ac trans]
+31.0 +26.5 77 +47 +51 опасность
перегрева
1008.0 1007.3 +28.7 +36.3
06 15.05 Ю 3 10 км 3/3 600 м
[Sc]
+34.4 +28.4 71 +56 +69 опасность
перегрева
1007.5 1006.8
09 15.05 Ю 3 10 км 3/1 600 м
[Sc Ci sp]
+35.0 +29.1 72 +59 +71 опасность
перегрева
1004.9 1004.2
12 15.05 ЮВ 3 10 км 5/1 600 м
[Sc Ac trans Ci sp]
+32.2 +28.3 80 +54 +54 опасность
перегрева
1004.7 1004.0 +35.8
15 15.05 Ю 2 4000 м 6/3 600 м
[Sc diur, vesp Ac trans Ci sp]
+31.0 +26.6 77 +47 +47 опасность
перегрева
1006.3 1005.6
18 15.05 ЮВ 1 4000 м 6/3 600 м
[Sc diur, vesp Ac trans Ci sp]
+30.4 +27.0 82 +48 +48 опасность
перегрева
1007.7 1007.0
21 15.05 ЮВ 1 4000 м 5/1 600 м
[Sc Ac trans Ci sp]
+29.6 +26.5 83 +45 +45 опасность
перегрева
1006.6 1005.9
00 16.05 Ю 2 4000 м 6/3 600 м
[Sc Ac trans Ci sp]
+29.4 +26.3 83 +45 +45 опасность
перегрева
1006.8 1006.1
03 16.05 Ю 3 10 км 6/5 600 м
[Sc diur, vesp Ci sp]
+31.8 +27.9 80 +52 +56 опасность
перегрева
1009.5 1008.8 +28.9 +35.8
06 16.05 Ю 2 10 км 4/3 600 м
[Sc diur, vesp Ci sp]
+34.6 +28.0 69 +56 +70 опасность
перегрева
1009.1 1008.4
09 16.05 ЮВ 2 10 км 6/4 600 м
[Sc diur, vesp Ci sp]
+35.6 +27.1 62 +54 +63 опасность
перегрева
1006.1 1005.4
12 16.05 ЮВ 2 10 км 4/3 600 м
[Sc diur, vesp Ci sp]
+32.6 +28.2 78 +54 +55 опасность
перегрева
1005.2 1004.5 +36.2
15 16.05 Ю 3 4000 м 4/3 600 м
[Sc diur, vesp Ac trans]
+31.0 +27.1 80 +49 +49 опасность
перегрева
1007.0 1006.3
18 16.05 Ю 3 4000 м 3/3 600 м
[Sc]
+30.6 +26.6 79 +47 +47 опасность
перегрева
1007.7 1007.0
21 16.05 Ю 3 4000 м 3/3 600 м
[Sc]
+30.2 +26.8 82 +47 +47 опасность
перегрева
1006.1 1005.4
00 17.05 Ю 2 4000 м 4/4 600 м
[Sc]
+29.8 +26.4 82 +46 +46 опасность
перегрева
1006.6 1005.9
03 17.05 Ю 3 10 км 6/4 600 м
[Sc Ci sp]
+31.2 +27.9 83 +51 +56 опасность
перегрева
1009.2 1008.5 +24.0 +36.2
06 17.05 ЮВ 2 10 км 5/4 600 м
[Sc diur, vesp Ci sp]
+34.0 +27.7 70 +54 +66 опасность
перегрева
1008.7 1008.0
09 17.05 Ю 3 10 км 3/1 600 м
[Sc diur, vesp Ci sp]
+35.8 +27.9 64 +56 +68 опасность
перегрева
1005.6 1004.9
12 17.05 ЮВ 3 10 км 5/3 600 м
[Cb cap Ci ing]
+32.8 +29.0 80 +56 +57 опасность
перегрева
1004.7 1004.0 +36.6
15 17.05 Ю 2 4000 м 8/3 600 м
[Sc Ac trans Ci sp]
+31.0 +27.7 83 +51 +51 опасность
перегрева
1006.6 1005.9
18 17.05 ЮВ 1 4000 м 5/1 600 м
[Sc diur, vesp Ac trans Ci sp]
+30.6 +27.5 84 +49 +49 опасность
перегрева
1007.1 1006.4
21 17.05 Ю 2 4000 м 4/4 600 м
[Sc]
+30.0 +26.9 84 +47 +47 опасность
перегрева
1005.5 1004.8
00 18.05 Ю 3 4000 м 4/3 600 м
[Sc Ac trans]
+29.4 +26.6 85 +45 +45 опасность
перегрева
1005.4 1004.7
03 18.05 Ю 2 10 км 4/4 600 м
[Sc diur, vesp]
+32.6 +28.8 80 +55 +60 опасность
перегрева
1007.3 1006.6 +28.7 +36.6
06 18.05 Ю 2 10 км 3/3 600 м
[Sc]
+36.0 +27.5 62 +55 +72 опасность
перегрева
1007.4 1006.7
09 18.05 Ю 2 10 км 3/1 600 м
[Sc Ci sp]
+36.4 +28.2 63 +57 +70 опасность
перегрева
1004.4 1003.7
12 18.05 Ю 4 10 км 4/1 600 м
[Sc diur, vesp Ci sp]
+32.6 +28.8 80 +55 +56 опасность
перегрева
1003.7 1003.0 +38.0
15 18.05 Ю 2 4000 м 4/3 600 м
[Sc diur, vesp Ci sp]
+31.4 +27.8 81 +51 +51 опасность
перегрева
1005.7 1005.0
18 18.05 ЮВ 2 4000 м 3/3 600 м
[Sc diur, vesp]
+31.0 +27.7 83 +51 +51 опасность
перегрева
1006.4 1005.7
21 18.05 Ю 2 4000 м 3/3 600 м
[Sc]
+30.2 +27.1 84 +48 +48 опасность
перегрева
1004.7 1004.0
00 19.05 ЮВ 2 4000 м 3/3 600 м
[Sc]
+29.8 +27.0 85 +47 +47 опасность
перегрева
1005.0 1004.3
03 19.05 Ю 2 10 км ясно +32.6 +27.6 75 +52 +60 опасность
перегрева
1007.2 1006.5 +28.9 +38.0
06 19.05 Ю 2 10 км ясно +34.8 +28.5 70 +57 +78 опасность
перегрева
1007.1 1006.4
09 19.05 ЮВ 2 10 км ясно +35.0 +28.2 68 +56 +73 опасность
перегрева
1005.1 1004.4
12 19.05 Ю 3 10 км 1/0
[Ci sp]
+32.6 +29.1 82 +56 +58 опасность
перегрева
1004.4 1003.7 +36.4
15 19.05 Ю 3 4000 м 1/1 600 м
[Sc]
+31.0 +27.7 83 +51 +51 опасность
перегрева
1006.5 1005.8
18 19.05 Ю 2 4000 м 1/1 600 м
[Sc]
+30.6 +27.2 82 +48 +48 опасность
перегрева
1007.7 1007.0

 

Местоположение метеостанции Бапатла (Андхра-Прадеш, Индия): широта 15.90 долгота 80.47 высота над уровнем моря 6 м.

В архиве по умолчанию представлена погода в Бапатле за последнюю неделю. Архивные данные за месяц целиком и за предыдущие месяцы, начиная с января 2011 года, Вы можете получить, выбрав интересующий диапазон дат из раскрывающегося списка и нажав кнопку "Ввод!".


*Определитесь, кто Вы:
робот инопланетянин человек

Внимание! Время в таблицах - всемирное. Для получения местного времени необходимо прибавить поправку, которая равна 5.5 ч.

Смотрите также архив погоды в соседних городах и на ближайших метеорологических станциях:

Погода в Онголе (Андхра-Прадеш, Индия) (63 км)
Погода в Ганнавараме (Андхра-Прадеш, Индия) (78 км)
Погода в Мачилипатнаме (Андхра-Прадеш, Индия) (80 км)
Погода в Нандигаме (Андхра-Прадеш, Индия) (100 км)
Погода в Рентчайнтале (Андхра-Прадеш, Индия) (122 км)
Погода в Кавали (Андхра-Прадеш, Индия) (123 км)
Погода в Нарсапере (Андхра-Прадеш, Индия) (144 км)
Погода в Кхаммаме (Телингана, Индия) (154 км)
Погода в Неллуру (Андхра-Прадеш, Индия) (170 км)
Погода в Налгонде (Телингана, Индия) (179 км)

Пояснения к столбцам:

Ветер - указаны скорость ветра в м/с - средняя за 10 мин, порывы в срок и между сроками (в фигурных скобках) и направление, откуда дует ветер: С - северный, СВ - северо-восточный, В - восточный, ЮВ - юго-восточный, Ю - южный, ЮЗ - юго-западный, З - западный, СЗ - северо-западный.
Видимость - горизонтальная дальность видимости в метрах или километрах. При видимости от 1 до 10 км при отсутствии осадков обычно наблюдается дымка, при ухудшении видимости до 1 км и менее - туман. В сухую погоду видимость может ухудшаться дымом, пылью или мглою.
Явления - указаны атмосферные явления, наблюдавшиеся в срок или в последний час перед сроком; фигурными скобками обозначены явления, наблюдавшиеся между сроками (за 1-3 часа до срока); квадратными скобками обозначены град или гололедные отложения с указанием их диаметра в мм.
Облачность - указаны через наклонную черту общая и нижняя облачность в баллах и высота нижней границы облаков в метрах; квадратными скобками обозначены формы облаков: Ci - перистые, Cs - перисто-слоистые, Cc - перисто-кучевые, Ac - высококучевые, As - высокослоистые, Sc - слоисто-кучевые, Ns - слоисто-дождевые, Cu - кучевые, Cb - кучево-дождевые. Подробнее классификацию облаков см. в Атласе облаков (PDF).
T - Температура воздуха - температура, измеренная на высоте 2 м над землей.
Td - Температура точки росы - температура, при понижении до которой содержащийся в воздухе водяной пар достигнет насыщения.
f - Относительная влажность воздуха - влажноcть воздуха, измеренная на высоте 2 м над землей.
Te - Эффективная температура - температура, которую ощущает одетый по сезону человек в тени. Характеристика душности погоды. При расчете учитывается влияние влажности воздуха и скорости ветра на теплоощущения человека.
Tes - Эффективная температура на солнце - температура, которую ощущает человек, с поправкой на солнечный нагрев. Характеристика знойности погоды. Зависит от высоты солнца над горизонтом, облачности и скорости ветра. Ночью, в пасмурную погоду, а также при ветре 12 м/с и более поправка равна нулю.
P - Атмосферное давление - приведенное к уровню моря атмосферное давление.
Po - Атмосферное давление - измеренное на уровне метеостанции атмосферное давление.
Tmin - Минимальная температура - минимум температуры воздуха на высоте 2 м над землей.
Tmax - Максимальная температура - максимум температуры воздуха на высоте 2 м над землей.
R - Количество осадков - Количество выпавших осадков за период времени, мм. При наведении курсора мыши на число - период времени, за который выпало указанное количество осадков.
R24 - Количество осадков - Количество выпавших осадков за 24 часа, мм.
S - Снежный покров - Высота снежного покрова, см. При наведении курсора мыши на число - состояние снежного покрова и степень покрытия местности в баллах.